Orbital Elements at Epoch 2459200.5 (2020-Dec-17.0) TDB
Reference: JPL 32 (heliocentric ecliptic J2000)
Element | Value | Uncertainty (1-sigma) | Units |
e | .1507514876602632 | 4.0513e-08 | |
a | 2.395171572950288 | 5.7335e-09 | au |
q | 2.03409589512646 | 9.593e-08 | au |
i | 6.275686256466956 | 4.3748e-06 | deg |
node | 12.87729643128805 | 2.687e-05 | deg |
peri | 359.9328955256 | 2.9526e-05 | deg |
M | 34.04437657472975 | 1.0512e-05 | deg |
tp | 2459072.459826267140 (2020-Aug-10.95982627) | 3.9535e-05 | TDB |
period | 1353.952316989828 3.71 | 4.8615e-06 1.331e-08 | d yr |
n | .2658882410278446 | 9.5471e-10 | deg/d |
Q | 2.756247250774117 | 6.5978e-09 | au |
|
| | Orbit Determination Parameters
Additional Information
|